STARLINK-35501, 66436

Orbit data source: Space-Track

STARLINK-35501, 66436 is a payload satellite owned by SpaceX/Seattle (US) in LEO that was launched on Tue, 11 Nov 2025 UTC via an FALCON 9 launch vehicle from the Air Force Eastern Test Range (AFETR). Payload-class satellites include a variety of spacecraft equipped with specific instruments for various scientific and technological missions. These include communications satellites like Starlink; space stations such as the ISS; scientific satellites like the Hubble; Earth observation satellites from companies like Planet Labs, Umbra, and HawkEye 360; GPS; miniature CubeSats for education and research; and military/defense satellites.

Loading next visibility...
Identifier
66436, 2025-259Q
Orbit
LEO
Country
Flag of USUS
Related business
Manufacturer
SpaceX/Seattle
Mission
Operational Commercial Communications
Bus & Motor
STARLINK V2MO, Unknown motor
Mass
575 kg wet, ~530 kg dry
Launch date (UTC)
2025-11-11 (7 months ago)
Launch vehicle
FALCON 9
Launch site
Air Force Eastern Test Range (AFETR)
Object type
Payload
Rocket body
Debris
Shape & HBR
Box + 2 Pan, 17.7 m
Radar Cross Section
36.964 m², Large (>1 m²)

Expand to show TLE details & history
Last TLE update: 12 hours ago

TLE from 12 hours ago
0 STARLINK-35501
1 66436U 25259Q   26171.40384855  .00013392  00000-0  49500-3 0  9991
2 66436  43.0039  53.9619 0001127 299.0651  61.0088 15.27599610 35200
Epoch: 2026-06-20T09:41Z
TLE epoch observation values (Epoch: 2026-06-20T09:41:32.514Z)
Latitude
-0.00001°
Longitude
-0.04255°
Altitude
482.392 km
Speed
7.626 km/s
True Right ascension
03h 35m 50s
True Declination
0° 00' 00"
Sunlit
Object was in daylight at epoch
Visualization orbit readout
Latitude
Unknown
Longitude
Unknown
Altitude
Unknown
Speed
Unknown
Apparent Right ascension
Unknown
Apparent Declination
Unknown
Sunlit
N/A
Visualization observer readout
Local Sidereal Time
08:33:35
Azimuth
Unknown
Elevation
Unknown
Doppler factor
Unknown
Orbital elements
Apogee altitude
485.708 km
Perigee altitude
484.161 km
Semi-major axis
6,863.072 km
Eccentricity
0.00011
Inclination
43.0039°
RAAN
53.9619°
Arg. of periapsis
299.0651°
True anomaly
61.0201°
Mean anomaly
61.0088°
Eccentric anomaly
61.01445°
Mean motion
3.81738 °/min
Orbital period
94.31 mins
BSTAR
0.000495
Loading maneuver chart data...
Computing Atmospheric mass density...
Loading historical data...
Loading historical data...
Loading historical data...
Loading historical data...
Loading historical data...
Loading historical data...
Loading historical data...

Documentation

Showing up to 5 results
|